DW8587 Weather Reports


Display with metric or nautical units.
time (UTC)temp
F
wind
direction
speed
MPH
gust
MPH
rain 1hr
in
rain 24hr
in
rain mn
in
humidity
%
barometer
mb
20260831114550 87 241 2.0 5.0 0.00 0.00 0.00 53 1012.9
20260831113048 87 319 1.0 4.0 0.00 0.00 0.00 54 1013.0
20260831111544 86 74 0.0 6.0 0.00 0.00 0.00 55 1013.1
20260831110045 85 88 2.0 10.0 0.00 0.00 0.00 55 1013.3
20260831104558 85 224 3.0 7.0 0.00 0.00 0.00 55 1013.3
20260831103037 84 355 3.0 10.0 0.00 0.00 0.00 56 1013.4
20260831101534 84 269 2.0 8.0 0.00 0.00 0.00 54 1013.4
20260831100036 84 242 2.0 4.0 0.00 0.00 0.00 54 1013.6
20260831094537 84 261 3.0 7.0 0.00 0.00 0.00 55 1013.7
20260831093031 83 332 2.0 7.0 0.00 0.00 0.00 56 1013.8
20260831091522 82 193 2.0 7.0 0.00 0.00 0.00 59 1013.8
20260831090020 83 98 0.0 4.0 0.00 0.00 0.00 59 1013.8
20260831084527 82 28 3.0 6.0 0.00 0.00 0.00 59 1013.7
20260831083024 81 114 2.0 4.0 0.00 0.00 0.00 62 1013.7
20260831081507 80 57 3.0 6.0 0.00 0.00 0.00 62 1013.6
20260831080009 80 250 0.0 2.0 0.00 0.00 0.00 64 1013.6
20260831074559 80 148 1.0 3.0 0.00 0.00 0.00 63 1013.6
20260831073055 81 81 0.0 2.0 0.00 0.00 0.00 63 1013.5
20260831071550 79 105 1.0 2.0 0.00 0.00 0.00 65 1013.5
20260831070049 77 347 1.0 4.0 0.00 0.00 0.00 68 1013.4
20260831064542 75 351 2.0 5.0 0.00 0.00 0.00 70 1013.5
20260831063038 74 42 3.0 5.0 0.00 0.00 0.00 71 1013.5
20260831061532 73 19 3.0 5.0 0.00 0.00 0.00 74 1013.6
20260831060027 72 53 2.0 3.0 0.00 0.00 0.00 77 1013.6
20260831054523 71 40 2.0 4.0 0.00 0.00 0.00 79 1013.5
20260831053020 70 38 2.0 4.0 0.00 0.00 0.00 81 1013.4
20260831051516 70 32 2.0 5.0 0.00 0.00 0.00 81 1013.3
20260831050014 70 40 2.0 5.0 0.00 0.00 0.00 80 1013.1
20260831044518 70 348 4.0 5.0 0.00 0.00 0.00 79 1013.1
20260831043010 70 37 3.0 5.0 0.00 0.00 0.00 78 1013.1
20260831041507 71 350 3.0 4.0 0.00 0.00 0.00 78 1013.2
20260831040006 71 28 1.0 2.0 0.00 0.00 0.00 78 1013.1
20260831034506 71 28 1.0 3.0 0.00 0.00 0.00 78 1013.1
20260831033006 71 24 1.0 3.0 0.00 0.00 0.00 78 1013.2
20260831031507 72 340 0.0 1.0 0.00 0.00 0.00 77 1013.3
20260831030004 72 340 0.0 3.0 0.00 0.00 0.00 77 1013.5
20260831024504 71 340 2.0 5.0 0.00 0.00 0.00 78 1013.5
20260831023004 71 11 2.0 3.0 0.00 0.00 0.00 79 1013.3
20260831021503 71 30 2.0 5.0 0.00 0.00 0.00 79 1013.2
20260831020001 71 9 1.0 4.0 0.00 0.00 0.00 79 1013.3
20260831014619 71 42 2.0 4.0 0.00 0.00 0.00 79 1013.4
20260831013059 72 350 2.0 4.0 0.00 0.00 0.00 78 1013.5
20260831011612 72 36 2.0 4.0 0.00 0.00 0.00 78 1013.6
20260831010055 72 36 2.0 6.0 0.00 0.00 0.00 77 1013.5
20260831004554 73 355 2.0 4.0 0.00 0.00 0.00 76 1013.4
20260831003054 73 41 4.0 6.0 0.00 0.00 0.00 75 1013.4
20260831001601 74 38 3.0 5.0 0.00 0.00 0.00 74 1013.6
20260831000049 74 344 2.0 4.0 0.00 0.00 0.00 74 1013.8
20260830234548 74 41 3.0 5.0 0.00 0.00 0.00 74 1013.8
20260830233046 74 40 2.0 4.0 0.00 0.00 0.00 74 1013.8
20260830231548 74 360 2.0 4.0 0.00 0.00 0.00 74 1013.8
20260830230044 74 40 2.0 4.0 0.00 0.00 0.00 74 1013.8
20260830224605 74 37 3.0 4.0 0.00 0.00 0.00 73 1013.9
20260830223039 74 355 2.0 4.0 0.00 0.00 0.00 72 1014.0
20260830221534 74 40 1.0 5.0 0.00 0.00 0.00 72 1014.0
20260830220033 74 57 3.0 6.0 0.00 0.00 0.00 73 1013.9
20260830214541 74 49 3.0 6.0 0.00 0.00 0.00 74 1013.7
20260830213029 73 44 2.0 4.0 0.00 0.00 0.00 74 1013.7
20260830211534 73 34 3.0 5.0 0.00 0.00 0.00 75 1013.5
20260830210034 73 36 2.0 4.0 0.00 0.00 0.00 76 1013.6
20260830204532 73 51 2.0 3.0 0.00 0.00 0.00 76 1013.5
20260830203028 73 49 2.0 3.0 0.00 0.00 0.00 76 1013.5
20260830201527 74 24 1.0 4.0 0.00 0.00 0.00 75 1013.4
20260830200027 74 34 2.0 5.0 0.00 0.00 0.00 74 1013.4
20260830194526 75 36 3.0 4.0 0.00 0.00 0.00 73 1013.4
20260830193026 75 24 2.0 4.0 0.00 0.00 0.00 73 1013.3
20260830191525 76 40 2.0 4.0 0.00 0.00 0.00 71 1013.2
20260830190025 77 32 2.0 5.0 0.00 0.00 0.00 69 1013.1
20260830184524 78 28 2.0 3.0 0.00 0.00 0.00 67 1012.9
20260830183023 79 274 0.0 0.0 0.00 0.00 0.00 64 1012.8
20260830181523 81 274 0.0 0.0 0.00 0.00 0.00 61 1012.7
20260830180022 82 274 0.0 0.0 0.00 0.00 0.00 58 1012.6
20260830174522 83 274 0.0 1.0 0.00 0.00 0.00 56 1012.6
20260830173022 84 274 0.0 2.0 0.00 0.00 0.00 54 1012.4
20260830171521 84 275 1.0 4.0 0.00 0.00 0.00 52 1012.3
20260830170021 85 309 1.0 4.0 0.00 0.00 0.00 51 1012.4
20260830164542 86 304 1.0 5.0 0.00 0.00 0.00 49 1012.4
20260830163026 87 266 1.0 4.0 0.00 0.00 0.00 48 1012.4
20260830161518 86 232 1.0 4.0 0.00 0.00 0.00 45 1012.5
20260830160019 87 261 1.0 4.0 0.00 0.00 0.00 47 1012.5
20260830154518 86 243 3.0 5.0 0.00 0.00 0.00 47 1012.5
20260830153015 88 149 2.0 8.0 0.00 0.00 0.00 47 1012.6
20260830151514 86 193 0.0 6.0 0.00 0.00 0.00 49 1012.7
20260830150013 86 113 2.0 6.0 0.00 0.00 0.00 47 1012.8
20260830144515 88 198 1.0 4.0 0.00 0.00 0.00 46 1012.8
20260830143009 87 294 2.0 8.0 0.00 0.00 0.00 49 1012.8
20260830141509 86 149 2.0 5.0 0.00 0.00 0.00 48 1012.9
20260830140006 87 319 3.0 9.0 0.00 0.00 0.00 49 1013.1
20260830134504 86 38 1.0 5.0 0.00 0.00 0.00 50 1013.2
20260830133004 85 167 3.0 8.0 0.00 0.00 0.00 51 1013.3
20260830131503 85 228 3.0 8.0 0.00 0.00 0.00 50 1013.5
20260830130005 86 295 2.0 6.0 0.00 0.00 0.00 50 1013.7
20260830124502 86 238 3.0 6.0 0.00 0.00 0.00 49 1013.7
20260830123001 86 196 2.0 4.0 0.00 0.00 0.00 48 1013.8
20260830121602 85 319 1.0 5.0 0.00 0.00 0.00 51 1013.9
20260830120057 84 234 1.0 7.0 0.00 0.00 0.00 51 1013.9